Weather History for New Castle, PA

Change the Weather History Date:

Thursday, February 21, 2013

  Actual Average Record
Temperature  
Mean Temperature 18 °F -  
Max Temperature 21 °F 41 °F 65 °F (1930)
Min Temperature 16 °F 21 °F -11 °F (1929)
Degree Days  
Heating Degree Days 46    
Moisture  
Dew Point 12 °F    
Average Humidity 76    
Maximum Humidity 86    
Minimum Humidity 66    
Precipitation  
Precipitation 0.00 in - - ()
Sea Level Pressure  
Sea Level Pressure 30.33 in    
Wind  
Wind Speed 7 mph (NW)    
Max Wind Speed 12 mph    
Max Gust Speed -    
Visibility 7 miles    
Events Snow    
Averages and records for this station are not official NWS values.
T = Trace of Precipitation, MM = Missing Value Source: NWS Daily Summary

Daily Weather History Graph

Daily Weather History Graph

Search for Another Location

Airport:

Trip Planner

Search our weather history database for the weather conditions in past years. The results will help you decide how hot, cold, wet, or windy it might be!

Date:

Astronomy

Feb. 21, 2013 Rise Set
Actual Time 7:07 AM EST 6:03 PM EST
Civil Twilight 6:39 AM EST 6:31 PM EST
Nautical Twilight 6:07 AM EST 7:03 PM EST
Astronomical Twilight 5:35 AM EST 7:35 PM EST
Moon 2:15 PM EST (2/21) 4:12 AM EST (2/21)
Length of Visible Light 11h 51m
Length of Day
10h 56m
Waxing Gibbous, 83% of the Moon is Illuminated
Feb 21
Waxing Gibbous
Feb 25
Full
Mar 4
Last Quarter
Mar 11
New
Mar 19
First Quarter

Hourly Weather History & Observations

Time (EST) Temp. Windchill Dew Point Humidity Pressure Visibility Wind Dir Wind Speed Gust Speed Precip Events Conditions
12:56 AM 18.1 °F 7.9 °F 12.0 °F 77% 30.27 in 10.0 mi WSW 8.1 mph - 0.00 in Snow Light Snow
1:56 AM 18.1 °F 8.9 °F 12.0 °F 77% 30.27 in 10.0 mi WSW 6.9 mph - 0.00 in Snow Light Snow
2:56 AM 18.1 °F 7.1 °F 13.1 °F 81% 30.27 in 10.0 mi WSW 9.2 mph - 0.00 in Snow Light Snow
3:36 AM 17.6 °F 6.4 °F 12.2 °F 79% 30.18 in 4.0 mi West 9.2 mph - 0.00 in Snow Light Snow
3:56 AM 18.1 °F 7.9 °F 13.1 °F 81% 30.28 in 4.0 mi West 8.1 mph - 0.00 in Snow Light Snow
4:56 AM 18.1 °F 10.0 °F 14.0 °F 84% 30.29 in 9.0 mi WNW 5.8 mph - 0.00 in Snow Light Snow
5:56 AM 18.1 °F 11.3 °F 14.0 °F 84% 30.31 in 4.0 mi West 4.6 mph - 0.00 in Snow Light Snow
6:27 AM 17.6 °F 8.2 °F 14.0 °F 86% 30.22 in 3.0 mi West 6.9 mph - 0.00 in Snow Light Snow
6:56 AM 18.1 °F 10.0 °F 14.0 °F 84% 30.33 in 4.0 mi West 5.8 mph - 0.00 in Snow Light Snow
7:38 AM 17.6 °F 7.3 °F 12.2 °F 79% 30.24 in 2.5 mi NNW 8.1 mph - 0.00 in Snow Light Snow
7:46 AM 17.6 °F 9.3 °F 12.2 °F 79% 30.25 in 3.0 mi NNW 5.8 mph - 0.00 in Snow Light Snow
8:04 AM 17.6 °F 9.3 °F 12.2 °F 79% 30.26 in 2.5 mi NNW 5.8 mph - 0.00 in Snow Light Snow
8:31 AM 17.6 °F 7.3 °F 12.2 °F 79% 30.28 in 1.5 mi NNW 8.1 mph - 0.00 in Snow Light Snow
8:39 AM 17.6 °F 7.3 °F 12.2 °F 79% 30.28 in 1.2 mi NNW 8.1 mph - 0.00 in Snow Light Snow
8:56 AM 17.1 °F 8.7 °F 13.1 °F 84% 30.40 in 1.8 mi NW 5.8 mph - 0.00 in Snow Light Snow
9:09 AM 17.6 °F 8.2 °F 12.2 °F 79% 30.30 in 1.0 mi NW 6.9 mph - 0.00 in Snow Light Snow
9:19 AM 17.6 °F 7.3 °F 12.2 °F 79% 30.30 in 1.5 mi NW 8.1 mph - 0.00 in Snow Light Snow
9:24 AM 17.6 °F 6.4 °F 10.4 °F 73% 30.30 in 3.0 mi WNW 9.2 mph - 0.00 in Snow Light Snow
9:31 AM 17.6 °F 5.7 °F 10.4 °F 73% 30.30 in 7.0 mi WNW 10.4 mph - 0.00 in Snow Light Snow
9:44 AM 17.6 °F 7.3 °F 10.4 °F 73% 30.30 in 10.0 mi NW 8.1 mph - 0.00 in Snow Light Snow
9:56 AM 18.1 °F 5.6 °F 9.1 °F 68% 30.40 in 10.0 mi NW 11.5 mph - 0.00 in   Overcast
10:49 AM 17.6 °F 6.4 °F 10.4 °F 73% 30.29 in 6.0 mi NNW 9.2 mph - 0.00 in Snow Light Snow
10:56 AM 18.1 °F 7.9 °F 10.0 °F 71% 30.40 in 8.0 mi NW 8.1 mph - 0.00 in Snow Light Snow
11:56 AM 19.0 °F 8.2 °F 10.0 °F 68% 30.43 in 10.0 mi WNW 9.2 mph - 0.00 in Snow Light Snow
12:56 PM 20.1 °F 12.3 °F 11.1 °F 68% 30.40 in 7.0 mi WNW 5.8 mph - 0.00 in Snow Light Snow
1:56 PM 20.1 °F 10.3 °F 11.1 °F 68% 30.40 in 10.0 mi NNW 8.1 mph - 0.00 in Snow Light Snow
2:56 PM 21.0 °F 13.4 °F 11.1 °F 66% 30.40 in 10.0 mi Variable 5.8 mph - 0.00 in Snow Light Snow
3:56 PM 21.0 °F 14.6 °F 12.0 °F 68% 30.38 in 10.0 mi NNW 4.6 mph - 0.00 in Snow Light Snow
4:56 PM 21.0 °F 13.4 °F 12.0 °F 68% 30.40 in 10.0 mi NW 5.8 mph - 0.00 in   Overcast
5:48 PM 19.4 °F - 10.4 °F 68% 30.33 in 10.0 mi Calm Calm - N/A   Partly Cloudy
5:56 PM 20.1 °F - 11.1 °F 68% 30.43 in 10.0 mi Calm Calm - N/A   Partly Cloudy
6:56 PM 18.1 °F 10.0 °F 11.1 °F 74% 30.43 in 10.0 mi NE 5.8 mph - N/A   Clear
7:56 PM 17.1 °F - 11.1 °F 77% 30.45 in 10.0 mi Calm Calm - N/A   Clear
8:56 PM 17.1 °F 8.7 °F 11.1 °F 77% 30.43 in 10.0 mi ENE 5.8 mph - N/A   Clear
10:56 PM 16.2 °F - 11.1 °F 81% 30.39 in 10.0 mi Calm Calm - N/A   Clear
11:56 PM 16.2 °F 6.5 °F 11.1 °F 81% 30.35 in 10.0 mi ENE 6.9 mph - N/A   Clear